SHT2N EGLL-EGFF

Flight info

Callsign SHT2N
Flight time 0h 36m
Altitude 17000
Route CPT Q63 ICTAM
Aircraft A320/M-SDE3FGHIRWY/LB1

Departure

Time 2026-05-06 15:49
Airport London Heathrow Airport (EGLL)

Arrival

Time 2026-05-06 16:25
Airport Cardiff International Airport (EGFF)
Time Latitude Longitude Altitude Speed Heading
2026-05-06 15:12 51.47271 -0.48581 88 ft 0 kts 270°
2026-05-06 15:37 51.47271 -0.48573 87 ft 4 kts 269°
2026-05-06 15:37 51.47273 -0.48530 87 ft 4 kts 256°
2026-05-06 15:38 51.47283 -0.48492 91 ft 4 kts 226°
2026-05-06 15:38 51.47300 -0.48476 89 ft 1 kts 178°
2026-05-06 15:38 51.47305 -0.48476 88 ft 0 kts 178°
2026-05-06 15:43 51.47295 -0.48476 87 ft 6 kts 178°
2026-05-06 15:43 51.47240 -0.48475 88 ft 9 kts 179°
2026-05-06 15:44 51.47174 -0.48475 88 ft 10 kts 181°
2026-05-06 15:44 51.47096 -0.48473 88 ft 12 kts 179°
2026-05-06 15:44 51.47012 -0.48473 88 ft 12 kts 180°
2026-05-06 15:44 51.46954 -0.48472 90 ft 6 kts 178°
2026-05-06 15:45 51.46908 -0.48470 93 ft 7 kts 179°
2026-05-06 15:45 51.46858 -0.48470 92 ft 7 kts 180°
2026-05-06 15:45 51.46816 -0.48470 92 ft 0 kts 179°
2026-05-06 15:46 51.46815 -0.48470 92 ft 2 kts 179°
2026-05-06 15:46 51.46780 -0.48471 92 ft 6 kts 186°
2026-05-06 15:47 51.46735 -0.48487 94 ft 7 kts 167°
2026-05-06 15:47 51.46683 -0.48468 94 ft 8 kts 175°
2026-05-06 15:47 51.46585 -0.48472 96 ft 15 kts 181°
2026-05-06 15:47 51.46488 -0.48438 94 ft 15 kts 125°
2026-05-06 15:48 51.46478 -0.48262 94 ft 17 kts 90°
2026-05-06 15:48 51.46479 -0.47916 90 ft 61 kts 89°
2026-05-06 15:48 51.46486 -0.46885 97 ft 120 kts 90°
2026-05-06 15:48 51.46494 -0.45294 96 ft 165 kts 88°
2026-05-06 15:49 51.46480 -0.43355 420 ft 184 kts 91°
2026-05-06 15:49 51.46404 -0.41192 849 ft 204 kts 93°
2026-05-06 15:49 51.46020 -0.38957 1486 ft 218 kts 119°
2026-05-06 15:49 51.44868 -0.37194 1813 ft 247 kts 151°
2026-05-06 15:50 51.43142 -0.36567 2363 ft 266 kts 183°
2026-05-06 15:50 51.41372 -0.37398 3219 ft 270 kts 212°
2026-05-06 15:50 51.39837 -0.39162 4144 ft 272 kts 220°
2026-05-06 15:50 51.38367 -0.41073 5141 ft 274 kts 221°
2026-05-06 15:51 51.36885 -0.43021 5776 ft 277 kts 221°
2026-05-06 15:51 51.35399 -0.44984 5962 ft 278 kts 221°
2026-05-06 15:51 51.33906 -0.46950 5995 ft 277 kts 221°
2026-05-06 15:51 51.32412 -0.48892 5996 ft 277 kts 221°
2026-05-06 15:52 51.30903 -0.50817 6003 ft 277 kts 221°
2026-05-06 15:52 51.29523 -0.52910 6006 ft 272 kts 238°
2026-05-06 15:52 51.28844 -0.55663 6005 ft 266 kts 266°
2026-05-06 15:52 51.29060 -0.58535 6010 ft 260 kts 291°
2026-05-06 15:53 51.29735 -0.61212 6007 ft 259 kts 296°
2026-05-06 15:53 51.30449 -0.63809 6009 ft 259 kts 296°
2026-05-06 15:53 51.31182 -0.66452 6057 ft 262 kts 296°
2026-05-06 15:53 51.31939 -0.69130 6907 ft 263 kts 296°
2026-05-06 15:54 51.32703 -0.71810 7767 ft 266 kts 296°
2026-05-06 15:54 51.33470 -0.74488 8585 ft 271 kts 296°
2026-05-06 15:54 51.34270 -0.77243 9384 ft 275 kts 296°
2026-05-06 15:54 51.35082 -0.80024 10227 ft 278 kts 296°
2026-05-06 15:55 51.35928 -0.82961 10477 ft 301 kts 295°
2026-05-06 15:55 51.36820 -0.86128 10647 ft 324 kts 295°
2026-05-06 15:55 51.37757 -0.89501 11121 ft 335 kts 295°
2026-05-06 15:55 51.38701 -0.92920 11812 ft 338 kts 295°
2026-05-06 15:56 51.39659 -0.96379 12497 ft 341 kts 295°
2026-05-06 15:56 51.40625 -0.99871 13143 ft 346 kts 294°
2026-05-06 15:56 51.41605 -1.03417 13835 ft 350 kts 294°
2026-05-06 15:56 51.42591 -1.07003 14503 ft 352 kts 294°
2026-05-06 15:57 51.43575 -1.10594 14874 ft 353 kts 294°
2026-05-06 15:57 51.44563 -1.14206 14978 ft 354 kts 294°
2026-05-06 15:57 51.45552 -1.17836 15006 ft 356 kts 292°
2026-05-06 15:57 51.46339 -1.21599 15001 ft 356 kts 288°
2026-05-06 15:58 51.47055 -1.25388 14994 ft 355 kts 287°
2026-05-06 15:58 51.47753 -1.29204 15244 ft 359 kts 287°
2026-05-06 15:58 51.48444 -1.33054 15856 ft 362 kts 286°
2026-05-06 15:58 51.49139 -1.36947 16463 ft 364 kts 286°
2026-05-06 15:59 51.49842 -1.40867 16893 ft 365 kts 286°
2026-05-06 15:59 51.50551 -1.44794 16979 ft 373 kts 286°
2026-05-06 15:59 51.51296 -1.48899 17001 ft 392 kts 286°
2026-05-06 15:59 51.52064 -1.53135 17000 ft 397 kts 286°
2026-05-06 16:00 51.52837 -1.57412 17001 ft 400 kts 286°
2026-05-06 16:00 51.53610 -1.61707 17005 ft 401 kts 286°
2026-05-06 16:00 51.54380 -1.66013 17003 ft 401 kts 286°
2026-05-06 16:00 51.55147 -1.70309 17005 ft 401 kts 286°
2026-05-06 16:01 51.55917 -1.74621 17010 ft 402 kts 286°
2026-05-06 16:01 51.56689 -1.78946 17009 ft 402 kts 286°
2026-05-06 16:01 51.57458 -1.83255 17008 ft 401 kts 286°
2026-05-06 16:01 51.58214 -1.87511 17008 ft 401 kts 286°
2026-05-06 16:02 51.58982 -1.91847 17010 ft 401 kts 286°
2026-05-06 16:02 51.59699 -1.96104 17006 ft 401 kts 282°
2026-05-06 16:02 51.59976 -2.00568 17002 ft 402 kts 270°
2026-05-06 16:02 51.59659 -2.05032 16999 ft 403 kts 258°
2026-05-06 16:03 51.58775 -2.09292 16998 ft 404 kts 246°
2026-05-06 16:03 51.57354 -2.13218 16998 ft 406 kts 235°
2026-05-06 16:03 51.55605 -2.16782 17000 ft 407 kts 232°
2026-05-06 16:03 51.53845 -2.20316 16955 ft 402 kts 232°
2026-05-06 16:04 51.52128 -2.23753 16829 ft 386 kts 232°
2026-05-06 16:04 51.50471 -2.27064 16563 ft 374 kts 232°
2026-05-06 16:04 51.48864 -2.30274 16080 ft 369 kts 232°
2026-05-06 16:04 51.47262 -2.33471 15527 ft 366 kts 232°
2026-05-06 16:05 51.45668 -2.36646 14975 ft 363 kts 232°
2026-05-06 16:05 51.44938 -2.38099 14724 ft 362 kts 232°
2026-05-06 16:05 51.43477 -2.41003 14201 ft 360 kts 232°
2026-05-06 16:05 51.41985 -2.44207 13679 ft 357 kts 239°
2026-05-06 16:06 51.41659 -2.45088 13534 ft 356 kts 242°
2026-05-06 16:06 51.41252 -2.46352 13318 ft 355 kts 246°
2026-05-06 16:07 51.40571 -2.49163 12880 ft 351 kts 255°
2026-05-06 16:07 51.40175 -2.51858 12508 ft 348 kts 262°
2026-05-06 16:07 51.39824 -2.55579 12370 ft 334 kts 262°
2026-05-06 16:07 51.39461 -2.59222 12187 ft 322 kts 262°
2026-05-06 16:08 51.39103 -2.62667 12060 ft 311 kts 262°
2026-05-06 16:08 51.38892 -2.64661 11983 ft 305 kts 262°
2026-05-06 16:08 51.38643 -2.66994 11889 ft 297 kts 262°
2026-05-06 16:08 51.38301 -2.70229 11648 ft 292 kts 263°
2026-05-06 16:09 51.38173 -2.73436 11325 ft 288 kts 274°
2026-05-06 16:09 51.38208 -2.74856 11170 ft 287 kts 274°
2026-05-06 16:09 51.38268 -2.77454 10894 ft 286 kts 274°
2026-05-06 16:09 51.38338 -2.80627 10568 ft 285 kts 273°
2026-05-06 16:10 51.38404 -2.83795 10237 ft 284 kts 274°
2026-05-06 16:10 51.38447 -2.85881 10020 ft 283 kts 274°
2026-05-06 16:10 51.38513 -2.89063 9676 ft 282 kts 273°
2026-05-06 16:10 51.38551 -2.90926 9468 ft 281 kts 273°
2026-05-06 16:11 51.38604 -2.93584 9187 ft 279 kts 273°
2026-05-06 16:11 51.38665 -2.96647 8851 ft 278 kts 273°
2026-05-06 16:11 51.38726 -2.99732 8523 ft 276 kts 273°
2026-05-06 16:11 51.38786 -3.02827 8197 ft 274 kts 273°
2026-05-06 16:12 51.38842 -3.05825 8040 ft 265 kts 273°
2026-05-06 16:12 51.38895 -3.08735 7920 ft 257 kts 272°
2026-05-06 16:12 51.38946 -3.11511 7790 ft 249 kts 273°
2026-05-06 16:12 51.38997 -3.14258 7646 ft 241 kts 272°
2026-05-06 16:13 51.39046 -3.16925 7393 ft 238 kts 273°
2026-05-06 16:13 51.39094 -3.19520 7138 ft 236 kts 272°
2026-05-06 16:13 51.39139 -3.22141 6853 ft 234 kts 272°
2026-05-06 16:13 51.39175 -3.24739 6584 ft 232 kts 272°
2026-05-06 16:14 51.39209 -3.27305 6284 ft 232 kts 272°
2026-05-06 16:14 51.39249 -3.29891 5954 ft 231 kts 272°
2026-05-06 16:14 51.39283 -3.32462 5656 ft 230 kts 272°
2026-05-06 16:14 51.39309 -3.35022 5359 ft 230 kts 271°
2026-05-06 16:15 51.39346 -3.37575 5080 ft 228 kts 272°
2026-05-06 16:15 51.39392 -3.40074 4962 ft 220 kts 272°
2026-05-06 16:15 51.39436 -3.42483 4821 ft 212 kts 272°
2026-05-06 16:15 51.39474 -3.44798 4687 ft 204 kts 272°
2026-05-06 16:16 51.39509 -3.47007 4599 ft 193 kts 272°
2026-05-06 16:16 51.39542 -3.49114 4372 ft 188 kts 272°
2026-05-06 16:16 51.39578 -3.51207 4119 ft 183 kts 272°
2026-05-06 16:16 51.39614 -3.53171 3958 ft 171 kts 272°
2026-05-06 16:17 51.39650 -3.55063 3646 ft 169 kts 272°
2026-05-06 16:17 51.39687 -3.56954 3287 ft 171 kts 272°
2026-05-06 16:17 51.39727 -3.58871 2911 ft 173 kts 272°
2026-05-06 16:17 51.39770 -3.60796 2547 ft 173 kts 272°
2026-05-06 16:18 51.39817 -3.62723 2200 ft 174 kts 272°
2026-05-06 16:18 51.39890 -3.64657 2018 ft 174 kts 279°
2026-05-06 16:18 51.40341 -3.66436 1998 ft 174 kts 309°
2026-05-06 16:18 51.41272 -3.67598 2012 ft 170 kts 340°
2026-05-06 16:19 51.42412 -3.67835 2011 ft 164 kts 15°
2026-05-06 16:19 51.43396 -3.67022 2014 ft 161 kts 47°
2026-05-06 16:19 51.43931 -3.65507 2016 ft 156 kts 75°
2026-05-06 16:19 51.44247 -3.63832 2014 ft 156 kts 75°
2026-05-06 16:20 51.44567 -3.62168 2010 ft 157 kts 73°
2026-05-06 16:20 51.44890 -3.60498 2010 ft 158 kts 74°
2026-05-06 16:20 51.45211 -3.58836 2002 ft 158 kts 74°
2026-05-06 16:20 51.45536 -3.57153 2007 ft 158 kts 75°
2026-05-06 16:21 51.45820 -3.55446 2002 ft 155 kts 84°
2026-05-06 16:21 51.45724 -3.53735 2017 ft 155 kts 107°
2026-05-06 16:21 51.45306 -3.52304 2003 ft 138 kts 116°
2026-05-06 16:21 51.44881 -3.50958 2004 ft 133 kts 116°
2026-05-06 16:22 51.44468 -3.49639 2001 ft 133 kts 116°
2026-05-06 16:22 51.44057 -3.48325 1932 ft 132 kts 116°
2026-05-06 16:22 51.43646 -3.47011 1807 ft 131 kts 116°
2026-05-06 16:22 51.43238 -3.45712 1657 ft 129 kts 115°
2026-05-06 16:23 51.42838 -3.44436 1476 ft 127 kts 115°
2026-05-06 16:23 51.42439 -3.43167 1296 ft 129 kts 115°
2026-05-06 16:23 51.42035 -3.41882 1121 ft 130 kts 117°
2026-05-06 16:23 51.41628 -3.40585 941 ft 130 kts 118°
2026-05-06 16:24 51.41221 -3.39291 764 ft 129 kts 117°
2026-05-06 16:24 51.40820 -3.38019 596 ft 129 kts 117°
2026-05-06 16:24 51.40413 -3.36734 405 ft 129 kts 117°
2026-05-06 16:24 51.40024 -3.35472 240 ft 125 kts 117°
2026-05-06 16:25 51.39683 -3.34396 222 ft 79 kts 117°
2026-05-06 16:25 51.39573 -3.34042 220 ft 0 kts 118°